TimeMST,TemperatureF,Dew PointF,Humidity,Sea Level PressureIn,VisibilityMPH,Wind Direction,Wind SpeedMPH,Gust SpeedMPH,PrecipitationIn,Events,Conditions,WindDirDegrees,DateUTC
12:53 AM,12.2,6.8,79,29.96,10.0,East,11.5,-,N/A,,Partly Cloudy,100,2013-01-09 07:53:00
1:53 AM,18.0,12.0,78,30.05,10.0,ESE,10.4,-,N/A,,Overcast,110,2013-01-09 08:53:00
2:53 AM,19.9,14.0,78,30.03,10.0,ESE,12.7,-,N/A,,Overcast,110,2013-01-09 09:53:00
3:53 AM,21.0,15.1,78,29.98,10.0,ESE,12.7,-,N/A,,Mostly Cloudy,110,2013-01-09 10:53:00
4:53 AM,23.0,17.1,78,29.94,10.0,ESE,16.1,-,N/A,,Mostly Cloudy,110,2013-01-09 11:53:00
5:53 AM,23.0,17.1,78,29.93,10.0,ESE,15.0,-,N/A,,Partly Cloudy,120,2013-01-09 12:53:00
6:53 AM,23.0,17.1,78,29.93,10.0,ESE,13.8,-,N/A,,Clear,120,2013-01-09 13:53:00
7:53 AM,21.9,17.1,82,29.95,10.0,ESE,12.7,-,N/A,,Clear,110,2013-01-09 14:53:00
8:53 AM,21.9,17.1,82,29.95,10.0,ESE,12.7,-,N/A,,Clear,120,2013-01-09 15:53:00
9:53 AM,26.1,19.9,78,29.94,10.0,ESE,10.4,-,N/A,,Mostly Cloudy,110,2013-01-09 16:53:00
11:53 AM,32.0,26.1,79,29.90,10.0,ESE,11.5,-,N/A,,Clear,120,2013-01-09 18:53:00
12:53 PM,36.0,28.0,73,29.88,10.0,SE,10.4,-,N/A,,Clear,140,2013-01-09 19:53:00
1:53 PM,43.0,28.0,56,29.83,10.0,South,12.7,-,N/A,,Clear,190,2013-01-09 20:53:00
2:53 PM,44.1,28.0,53,29.83,10.0,SSW,6.9,-,N/A,,Scattered Clouds,200,2013-01-09 21:53:00
3:53 PM,42.1,28.0,58,29.81,10.0,South,5.8,-,N/A,,Mostly Cloudy,170,2013-01-09 22:53:00
4:53 PM,39.0,28.9,67,29.80,10.0,SE,12.7,-,N/A,,Scattered Clouds,140,2013-01-09 23:53:00
5:53 PM,37.9,30.0,73,29.78,10.0,SE,11.5,-,N/A,,Mostly Cloudy,140,2013-01-10 00:53:00
6:53 PM,37.0,30.0,76,29.78,10.0,SSE,12.7,-,N/A,,Clear,150,2013-01-10 01:53:00
7:53 PM,36.0,30.0,79,29.74,10.0,ESE,10.4,-,N/A,,Partly Cloudy,110,2013-01-10 02:53:00
8:53 PM,36.0,28.9,76,29.73,10.0,ESE,12.7,-,N/A,,Clear,120,2013-01-10 03:53:00
9:53 PM,35.1,28.9,78,29.72,10.0,ESE,11.5,-,N/A,,Clear,120,2013-01-10 04:53:00
10:53 PM,30.9,27.0,85,29.70,10.0,ESE,10.4,-,N/A,,Clear,110,2013-01-10 05:53:00
11:53 PM,30.0,26.1,85,29.68,10.0,ESE,10.4,-,N/A,,Clear,120,2013-01-10 06:53:00